{"data":{"norad_id":51116,"epoch":"2026-05-24T20:50:57.973056Z","epoch_age_seconds":89417,"freshness":"FRESH","line1":"1 51116U 22005N   26144.86872654  .00000021  00000+0  19458-4 0  9999","line2":"2 51116  53.2128 307.1103 0001898  92.4877 267.6332 15.08826884240370","mean_motion":15.08826884,"eccentricity":0.0001898,"inclination_deg":53.2128,"raan_deg":307.1103,"arg_perigee_deg":92.4877,"mean_anomaly_deg":267.6332,"bstar":1.9458e-5,"rev_number":24037,"period_min":95.438384301747,"perigee_km":538.47045831235,"apogee_km":541.09650092642,"semimajor_km":6917.9204796194,"source":"CELESTRAK","updated_at":"2026-05-25T13:38:16.909053Z"}}